Theta_e
314 311 304 309 314 319 325 327 327 329 334 330 330 335 336 342 346 354 356 359 357 360 361 360 359 360 360 360 360 359 358 357
309 304 309 311 318 324 324 327 328 329 329 335 341 338 342 345 347 352 355 358 358 360 361 360 358 359 360 359 360 358 357 356
305 305 310 314 315 317 323 325 325 330 328 331 339 345 346 346 346 349 352 355 356 361 361 359 358 358 359 360 359 359 358 356
299 303 308 312 315 315 320 325 327 327 330 332 342 343 346 348 346 348 351 353 354 360 360 359 359 359 360 360 359 359 359 359
302 302 304 308 313 312 313 314 317 331 327 334 339 344 347 348 348 348 351 351 353 356 357 359 359 359 360 360 360 360 360 360
305 303 303 312 310 313 313 313 328 330 324 331 340 344 347 347 346 347 348 350 356 356 354 353 355 358 359 359 360 360 360 359
302 304 306 310 310 312 315 317 324 332 335 339 342 343 343 342 342 344 347 351 354 353 353 351 348 354 358 358 358 358 358 358
307 309 308 309 309 312 317 319 327 333 337 339 339 340 337 336 337 340 341 348 352 353 353 351 348 351 351 353 354 353 354 356
307 309 310 309 310 309 318 322 329 331 333 336 337 337 335 335 337 340 344 346 351 352 353 350 347 350 350 351 353 354 356 356
305 308 308 308 310 311 317 326 331 337 337 336 335 333 334 334 335 338 342 346 348 350 349 351 349 349 350 349 352 351 353 356
307 308 308 309 309 309 311 317 338 338 337 336 335 335 335 335 337 339 340 344 346 348 349 352 351 350 350 349 351 352 353 353
309 310 309 308 310 308 322 334 335 335 335 336 336 336 335 334 334 338 342 344 346 347 349 352 350 351 349 350 350 352 352 352
306 308 308 309 304 306 327 334 332 333 335 335 336 337 336 337 336 337 341 345 345 346 349 352 352 351 349 349 349 348 351 354
303 304 305 307 302 313 331 331 330 331 333 334 335 338 339 340 341 340 339 343 347 348 348 352 351 350 349 350 349 348 348 351
300 303 303 303 302 321 330 330 329 331 332 332 334 335 337 340 342 344 343 342 344 347 348 351 351 351 351 352 350 349 349 347
299 300 303 303 307 325 329 329 329 329 330 331 331 329 332 335 339 343 344 345 345 346 347 350 349 350 349 348 349 349 348 346
300 303 303 303 312 321 326 327 327 328 329 328 327 330 331 331 334 337 341 342 344 344 346 345 343 342 342 340 342 345 346 345
301 302 303 309 313 319 323 325 327 327 326 327 327 328 328 328 329 332 335 337 339 343 344 345 344 344 344 344 345 347 347 344
300 308 313 311 310 315 318 321 324 327 327 326 327 327 326 325 326 327 327 330 332 334 336 341 345 345 345 343 341 340 340 339
305 303 300 304 297 310 316 319 322 324 326 327 324 325 325 327 328 327 324 326 329 330 331 336 343 344 344 341 337 336 335 333
Wind_Speed
1 2 5 1 1 3 2 3 2 2 3 3 4 5 10 7 18 21 19 18 16 18 17 17 18 18 17 16 15 15 15 15
4 9 6 3 5 6 0 5 2 2 5 6 7 5 3 15 19 20 18 19 18 18 17 17 18 18 17 17 16 15 15 15
4 7 6 5 6 5 1 1 3 2 4 5 4 7 13 15 16 19 17 17 17 17 16 17 18 17 17 17 16 15 15 14
12 7 5 7 9 7 7 6 4 4 6 5 7 11 13 15 15 16 17 16 15 17 16 16 16 16 15 15 15 15 14 13
3 5 6 7 2 5 4 7 8 6 7 6 8 11 13 14 15 15 16 15 13 16 15 15 15 15 14 14 13 12 12 11
6 7 4 1 1 2 4 7 4 9 7 7 12 15 14 15 15 14 13 14 15 14 15 14 14 15 15 14 13 12 11 11
9 9 4 3 2 2 5 8 6 7 2 9 24 20 17 16 14 13 12 13 15 15 14 13 13 13 14 15 13 13 12 11
5 6 4 1 2 7 4 7 8 7 13 20 22 21 20 19 17 16 17 14 14 15 14 13 9 12 11 11 10 9 10 10
6 7 1 1 6 4 8 11 12 22 20 20 21 20 19 18 17 17 16 12 15 14 13 14 11 9 6 6 6 7 10 9
11 5 4 4 5 10 6 2 4 14 21 23 22 20 19 17 16 16 17 16 15 14 11 13 8 8 8 7 7 6 8 10
14 13 11 8 10 5 11 9 10 19 18 20 19 17 15 14 14 14 16 16 12 11 10 12 10 7 8 7 7 7 8 9
6 11 9 9 7 4 1 9 14 19 19 18 18 17 13 13 14 14 14 14 13 12 9 12 10 10 7 7 7 6 7 7
15 13 9 12 7 7 6 12 17 15 15 15 13 13 13 13 13 14 13 13 13 12 11 13 11 10 7 7 7 6 6 8
4 14 5 12 11 4 8 13 15 15 14 13 8 9 8 9 9 11 12 14 13 12 13 14 11 9 7 7 7 6 5 5
3 8 7 9 8 7 10 12 14 14 13 11 10 8 5 3 9 12 13 13 14 14 14 14 12 8 7 7 6 6 5 6
3 6 8 10 9 10 10 13 12 12 12 10 9 7 5 4 3 7 11 13 14 12 12 12 8 6 5 5 5 5 5 4
2 4 6 11 11 8 7 12 13 12 11 10 9 6 6 5 4 4 7 10 12 12 11 9 8 8 6 7 6 5 4 4
4 2 5 8 10 6 6 7 9 11 12 11 9 7 6 6 6 5 6 6 7 10 11 9 8 7 4 4 4 3 3 4
2 8 6 14 6 8 4 7 8 7 8 8 11 9 5 6 6 5 6 5 7 8 8 8 10 7 4 5 3 3 4 4
13 8 6 4 9 8 8 9 11 12 12 12 11 7 6 5 6 6 6 6 6 7 8 6 9 10 11 7 5 2 3 4
Wind_Direction
245 209 231 171 354 313 127 139 52 102 56 45 37 55 143 120 148 151 153 154 151 153 148 146 143 136 131 127 122 120 123 127
234 229 252 216 102 40 192 195 208 98 64 94 44 128 131 141 149 151 155 152 153 152 151 148 145 139 135 132 130 129 129 132
227 242 269 247 253 260 268 17 121 139 118 77 51 90 128 141 153 152 154 156 154 151 152 148 147 142 139 137 135 136 137 140
222 221 252 272 253 241 220 222 128 150 140 98 126 127 140 142 154 154 154 159 159 150 154 150 148 146 142 139 139 139 140 142
216 248 253 259 258 228 245 254 238 137 168 103 154 137 146 144 150 153 159 161 161 163 156 152 149 149 146 142 142 140 137 136
214 210 225 157 260 276 270 292 135 168 190 167 158 142 143 146 151 150 161 165 165 169 165 163 159 156 152 148 144 140 139 140
208 182 184 142 324 134 291 254 184 168 119 112 137 135 147 148 154 155 168 172 173 173 168 170 163 160 157 153 152 149 151 151
207 197 175 126 248 331 262 188 169 111 93 126 139 146 156 161 164 170 174 173 180 174 174 170 167 163 166 162 169 173 170 168
209 217 263 254 296 316 303 197 191 170 146 149 148 156 166 175 171 173 176 175 181 179 176 176 173 167 171 171 172 174 174 175
229 210 265 274 316 313 265 212 271 164 159 152 157 167 174 176 173 175 178 185 181 180 174 183 173 179 172 176 178 183 181 179
236 254 262 284 275 273 264 281 145 144 164 156 164 170 171 175 173 175 181 180 181 181 177 183 184 177 180 184 185 196 188 187
250 241 240 238 258 205 205 153 139 152 166 165 165 165 163 177 178 181 182 184 181 185 181 186 190 183 187 187 185 206 201 197
244 232 229 215 237 222 151 163 144 156 167 155 159 166 181 183 185 183 186 184 190 187 185 191 190 190 193 202 195 209 213 211
183 193 205 197 198 145 163 158 154 157 154 144 149 172 189 188 190 180 186 189 188 188 192 193 191 188 199 200 210 214 221 231
162 187 157 213 179 154 160 171 159 159 143 140 122 95 74 141 193 190 192 187 190 195 197 196 194 195 200 205 213 217 223 233
182 147 171 183 124 149 166 170 161 153 143 143 122 92 87 104 131 187 190 196 195 193 197 191 191 191 201 209 214 218 233 253
163 179 179 191 137 151 167 169 164 160 148 135 124 112 106 97 93 143 185 197 196 192 189 181 188 188 205 215 209 208 201 230
97 4 204 164 131 121 156 180 181 162 155 153 143 149 124 105 91 99 152 162 182 194 185 184 184 183 203 205 231 242 172 131
190 117 76 145 143 170 122 126 152 175 164 157 171 164 151 119 106 98 107 141 142 149 148 172 186 174 141 124 101 159 161 125
151 174 160 239 181 210 179 171 194 193 192 177 181 169 170 147 126 115 100 107 119 127 130 140 172 186 192 207 170 129 112 81